Theta_e
336 337 337 336 336 335 334 334 334 332 330 331 333 334 333 332 331 332 332 331 330 331 332 332 331 330 329 329 330 330 329 328 326 325 327 327 328 328 328 330 331 330 330 330 330 330 330 331 331 330 330 329 329 330 329 328 329 329 328 327 326 327 327
335 336 336 336 336 336 335 335 335 334 333 332 331 332 333 332 331 331 331 331 331 331 332 332 332 331 330 329 330 330 329 329 328 327 326 327 328 328 329 330 330 329 330 330 329 330 331 331 331 330 329 330 329 329 329 329 330 329 328 327 326 327 327
334 335 335 336 335 335 335 335 335 335 333 332 331 332 332 332 331 330 330 331 331 331 331 332 331 330 330 331 330 330 330 329 329 328 327 327 328 329 328 330 330 330 330 330 330 331 332 330 330 329 329 330 329 329 329 330 330 330 329 328 327 327 327
334 333 334 335 335 335 335 335 335 335 333 332 332 332 332 332 331 330 330 331 330 329 329 330 330 330 330 331 330 329 329 330 330 329 328 329 329 329 328 328 330 330 329 330 330 330 331 331 331 331 329 330 329 328 329 330 330 330 329 328 327 327 327
332 332 333 334 334 334 335 335 335 335 334 333 332 332 332 333 332 331 331 331 330 328 328 329 330 331 331 330 329 327 326 329 330 330 329 329 328 329 328 328 329 330 330 331 329 330 331 329 329 331 331 330 330 329 330 330 330 330 330 329 328 327 327
331 332 332 333 332 333 333 334 335 335 334 334 334 333 332 332 332 331 330 330 330 329 330 330 331 331 331 331 329 327 326 328 330 330 329 329 328 327 326 327 328 329 330 331 329 329 331 329 328 330 331 330 330 330 330 330 329 330 330 329 328 328 327
331 331 331 331 331 332 332 332 333 333 333 334 333 332 332 332 331 331 330 330 330 330 331 331 332 331 331 331 330 329 328 328 330 331 330 328 327 327 326 326 327 328 329 330 330 330 330 330 329 329 329 329 329 329 330 330 329 330 330 329 328 328 327
329 330 330 331 331 331 331 331 331 331 332 332 331 331 331 330 331 330 330 330 330 331 331 332 332 331 331 331 331 331 330 330 331 331 330 329 327 328 328 326 326 327 329 330 330 330 330 330 330 330 329 328 328 328 329 329 329 329 329 328 328 327 327
326 327 329 330 331 332 331 331 331 331 331 331 331 331 330 329 330 331 331 330 331 331 331 332 332 331 331 331 331 331 330 331 331 330 330 330 328 327 327 326 324 325 328 330 329 329 330 331 330 330 329 329 329 328 328 329 329 328 328 328 327 327 327
325 325 327 328 329 330 331 331 331 331 332 331 331 331 329 328 329 330 330 331 331 330 330 331 332 332 332 331 330 331 330 330 330 330 330 330 328 327 326 326 324 324 328 330 328 328 330 330 330 329 329 329 329 329 329 329 329 329 328 327 327 327 327
323 324 325 326 327 328 330 330 331 332 331 331 331 330 329 328 328 329 330 330 330 330 330 331 332 332 331 331 330 331 331 330 330 330 329 329 328 328 328 327 325 326 329 330 328 327 328 329 330 330 329 329 329 329 329 329 329 329 328 327 327 327 327
321 322 324 325 326 327 328 329 331 331 331 331 331 330 329 329 329 330 330 329 329 330 330 331 332 331 331 331 331 331 331 331 330 329 328 328 329 328 329 328 326 327 331 330 328 327 327 329 330 330 329 329 329 328 329 330 330 329 328 327 327 327 327
319 319 321 324 326 327 327 328 329 330 331 331 331 330 330 330 329 329 330 330 331 331 330 330 331 331 331 330 330 330 331 331 330 328 327 327 328 328 329 329 326 328 331 330 327 327 327 328 330 330 329 330 329 329 329 330 329 329 327 327 327 327 327
317 317 318 320 323 325 326 326 327 328 330 331 331 331 330 330 329 329 329 330 330 330 329 330 331 331 331 330 330 330 330 331 330 328 326 327 327 327 328 328 326 328 331 330 327 327 326 327 329 329 329 329 329 329 329 328 327 327 326 326 327 327 326
317 316 316 316 319 321 324 326 326 327 328 329 330 330 330 330 330 330 329 328 329 329 329 331 331 331 331 330 330 330 330 330 330 329 328 329 328 327 327 328 327 328 330 329 327 326 326 327 328 328 329 329 329 329 329 328 327 327 326 326 328 327 326
316 315 316 316 316 316 319 322 325 326 327 327 328 329 329 330 329 330 330 329 329 329 329 330 330 330 330 330 330 330 329 329 329 329 330 330 328 328 328 328 328 329 329 328 327 326 326 327 328 329 330 329 329 329 329 329 328 327 326 326 327 327 326
315 314 314 315 316 315 316 317 320 323 326 327 327 327 328 329 329 330 330 329 329 329 329 329 329 329 329 329 330 330 329 328 328 328 328 327 326 327 329 329 328 329 328 328 328 326 326 327 328 329 330 329 329 329 329 329 327 327 326 326 326 325 326
314 313 313 314 314 315 315 316 317 318 321 324 326 326 327 328 329 329 329 330 330 330 330 330 330 330 329 328 328 328 328 328 327 327 327 326 326 328 329 328 328 328 328 329 328 326 327 328 328 329 329 328 329 328 328 328 328 327 327 326 325 324 324
313 312 312 312 313 314 315 315 316 316 317 320 322 324 325 327 328 329 329 330 329 329 330 330 329 329 329 328 327 326 327 327 327 326 326 326 328 329 329 329 329 329 328 328 328 327 327 328 329 329 328 327 328 327 327 328 328 328 327 326 326 323 322
312 312 312 311 311 312 314 314 315 316 317 317 319 321 323 325 327 328 328 329 329 329 329 329 329 328 328 328 327 326 325 325 324 324 324 326 328 329 329 329 330 329 328 328 329 328 328 328 328 328 327 327 327 327 327 327 327 327 327 326 326 324 321
311 311 311 311 310 311 312 314 315 316 316 317 318 320 322 324 326 327 328 328 329 329 329 329 329 328 328 328 327 325 325 325 324 323 323 325 327 328 328 328 328 329 328 328 329 328 327 328 328 327 326 326 326 326 327 327 327 327 326 326 326 325 321
311 310 310 310 310 310 311 312 314 315 316 317 317 319 321 324 325 326 327 327 328 328 328 328 328 328 328 328 327 326 326 327 326 326 326 327 327 327 328 328 328 329 329 328 328 327 327 327 327 326 325 325 325 326 327 326 327 328 327 326 327 326 323
310 310 310 309 309 309 309 310 312 314 315 316 317 318 320 323 325 325 326 327 328 328 328 328 328 327 327 327 327 326 327 327 326 326 326 327 327 327 327 327 326 328 329 328 327 327 326 325 326 325 324 323 324 327 328 327 327 328 327 326 326 326 325
309 309 309 309 309 309 308 308 309 311 313 314 316 318 320 322 323 324 325 326 327 327 328 328 328 327 327 327 326 326 326 325 325 324 325 328 328 326 326 325 325 327 328 327 326 325 325 325 325 325 324 323 324 327 328 327 328 328 326 325 326 327 326
308 308 308 308 308 308 308 307 307 308 309 311 312 314 316 319 321 322 323 324 324 325 326 327 327 327 327 327 326 327 326 325 325 325 325 328 328 327 326 326 327 328 327 325 325 324 324 324 324 325 325 323 324 327 328 328 328 328 326 325 326 327 326
307 307 307 307 308 307 307 307 306 306 307 307 309 310 312 314 316 318 320 321 321 322 324 325 326 327 328 327 327 327 327 325 325 326 326 327 328 327 326 327 328 328 326 325 325 325 324 323 324 325 326 325 325 327 327 328 328 328 327 326 325 325 325
307 307 307 307 307 307 307 306 306 306 306 306 306 307 308 309 311 313 314 316 317 319 321 323 324 325 327 327 327 327 327 326 326 326 327 327 327 327 326 325 325 326 325 325 324 323 323 324 325 326 327 328 327 327 327 327 327 327 327 326 325 324 324
306 306 306 306 306 306 306 306 306 306 306 305 305 305 305 306 307 308 309 311 313 315 317 320 323 324 325 326 326 327 327 327 327 327 326 326 327 328 327 325 324 323 324 325 324 323 324 325 325 325 327 328 328 328 328 327 327 327 326 326 325 325 325
305 305 305 305 305 305 305 305 305 305 305 305 305 305 304 304 305 306 307 308 309 310 312 315 318 321 323 324 325 326 326 326 327 327 327 326 326 326 327 327 325 324 325 326 326 325 325 325 326 326 327 328 328 328 328 327 326 326 326 325 325 325 325
305 305 305 304 304 304 304 304 304 304 304 304 305 305 304 304 304 304 305 305 306 307 308 310 313 317 320 322 324 325 325 326 326 326 327 327 325 324 324 325 325 324 325 326 326 325 325 326 327 327 328 328 328 328 327 326 326 325 325 325 325 325 325
304 304 304 304 304 304 304 303 303 303 303 303 303 304 304 304 304 303 303 304 304 306 307 308 309 312 315 318 321 323 324 325 326 326 326 326 325 323 322 322 322 322 324 326 325 325 326 326 326 327 328 327 327 327 326 325 325 325 325 325 325 325 325
303 303 303 303 303 303 303 303 303 303 303 303 303 303 303 303 303 303 303 302 303 304 305 306 307 309 311 314 317 320 322 323 325 325 325 326 326 325 323 323 323 323 324 324 323 324 326 326 326 326 326 326 326 326 325 325 325 324 324 324 324 325 325
302 303 303 303 302 302 302 302 302 302 302 302 302 302 302 302 302 302 302 302 302 302 303 304 305 307 308 310 313 316 318 320 322 324 324 325 325 325 324 323 324 325 325 324 323 325 326 326 326 326 325 325 325 324 324 324 325 325 325 325 324 324 324
302 302 302 302 302 302 301 302 301 301 302 302 302 301 301 301 301 300 301 301 302 302 302 302 303 305 306 308 310 313 315 316 319 321 322 322 322 322 322 322 322 324 325 325 324 325 325 325 325 325 325 325 324 323 323 325 325 325 324 323 322 321 320
301 301 301 301 301 301 301 301 301 301 301 301 301 301 301 301 300 300 300 300 301 301 302 302 302 303 304 305 307 309 311 313 315 318 318 319 319 320 321 321 322 323 325 325 325 325 325 325 325 324 324 324 324 323 323 323 323 322 320 319 318 316 315
300 300 300 300 300 300 300 300 300 300 300 300 301 301 301 301 300 300 299 299 299 300 301 302 302 302 302 303 304 306 308 309 312 314 314 315 316 318 319 320 321 322 323 324 325 326 324 323 324 323 323 323 323 322 322 321 319 318 316 315 314 313 313
300 300 300 299 299 300 299 299 298 299 300 300 300 300 300 300 300 300 299 299 299 299 300 301 301 302 302 302 303 304 305 306 308 310 311 311 312 314 317 319 319 320 321 321 323 324 323 322 322 322 322 321 319 318 318 317 316 315 315 314 313 312 311
Wind_Speed
10 9 9 10 10 10 11 12 12 12 14 15 15 17 17 18 19 20 20 21 23 25 25 26 28 28 28 29 29 29 27 27 26 26 28 27 24 24 26 30 30 25 19 16 18 20 19 20 18 18 18 17 17 16 15 14 14 14 15 14 14 14 13
11 10 10 10 9 10 10 12 12 13 14 15 16 17 18 18 19 19 20 21 22 24 25 25 25 27 29 30 31 31 30 29 27 26 28 28 27 25 25 30 31 26 20 17 19 20 17 19 20 22 21 18 18 19 16 15 15 15 16 15 14 14 13
12 12 11 11 12 12 13 13 13 14 15 16 16 16 17 18 18 18 19 19 20 21 23 23 23 25 28 30 31 31 31 31 29 29 30 28 29 28 25 26 28 27 23 19 20 21 19 19 19 21 25 24 22 22 20 18 17 16 16 16 15 14 14
11 12 13 14 14 14 14 15 14 14 16 17 17 17 17 18 17 18 18 19 20 21 22 22 23 24 27 30 30 29 31 32 32 32 32 30 29 30 28 26 27 30 29 24 23 23 21 20 16 17 24 25 23 23 22 21 19 17 17 16 16 16 15
11 12 13 14 15 15 15 16 15 15 16 17 18 18 18 18 18 19 19 20 21 23 23 23 23 24 26 28 30 30 30 32 34 35 34 33 31 30 29 28 27 29 29 26 26 24 22 23 19 17 22 24 22 21 21 22 21 18 18 18 17 16 16
12 12 13 14 15 15 15 16 17 17 16 16 17 20 21 20 20 21 21 21 21 21 22 22 23 25 26 28 30 31 31 31 34 35 35 34 32 30 31 30 29 28 27 27 27 22 19 23 21 19 23 25 23 21 20 22 22 20 18 18 18 17 16
10 12 13 14 16 16 15 16 16 17 17 17 18 20 22 22 23 23 22 22 22 20 20 21 22 25 26 27 30 31 30 31 33 33 34 33 31 30 31 31 30 28 26 26 26 21 19 22 23 22 23 23 22 21 20 21 21 21 20 20 19 18 17
10 11 12 13 13 15 16 16 16 15 15 17 19 20 20 22 23 24 23 23 22 21 21 21 22 24 26 27 29 29 28 30 30 31 32 32 31 31 31 31 30 29 27 27 26 23 20 20 22 23 22 23 23 21 20 20 21 22 22 21 20 19 18
10 11 12 13 12 12 15 16 16 14 14 16 18 21 21 22 23 23 23 23 22 21 21 23 23 25 25 26 27 27 28 29 29 30 32 32 31 30 30 30 29 30 30 27 26 25 22 18 20 22 21 22 23 21 20 19 20 22 21 20 21 20 19
10 10 10 13 14 13 13 14 15 14 15 16 18 20 21 22 23 23 22 23 23 21 22 24 25 25 26 27 27 26 27 29 29 31 32 31 30 28 28 29 29 29 28 26 26 27 24 20 20 22 22 22 22 20 21 20 19 20 20 20 20 20 20
10 9 9 10 12 12 12 13 14 15 16 17 18 19 20 21 22 22 22 22 22 21 22 24 25 25 26 28 28 27 27 28 30 31 32 30 29 28 28 29 28 27 28 28 27 26 26 25 24 24 23 23 23 21 20 20 19 18 20 20 19 19 20
11 10 9 9 9 11 12 13 14 15 17 18 19 20 21 21 21 21 21 20 19 20 21 22 23 25 26 27 29 29 28 28 30 31 31 29 28 28 28 29 29 26 27 29 28 26 28 29 27 25 24 23 24 22 19 18 18 17 20 22 19 18 21
13 11 11 10 10 11 13 14 15 15 16 17 18 20 20 19 21 21 20 18 18 19 20 21 23 24 26 27 29 31 30 29 31 32 31 29 28 28 26 28 30 27 26 29 30 28 28 31 29 26 26 24 24 24 22 20 20 19 22 23 21 19 20
13 13 12 12 12 13 15 16 17 17 17 16 16 19 20 20 21 21 20 19 19 20 21 22 22 23 25 27 29 30 30 31 32 33 31 29 29 28 27 29 30 29 28 30 31 29 28 30 31 27 26 26 25 25 24 23 23 21 22 23 20 20 21
13 14 14 13 13 14 17 17 18 19 20 19 18 18 20 21 20 20 20 20 19 20 21 21 21 22 25 27 28 29 29 30 30 29 27 27 28 29 29 29 29 30 31 30 31 32 29 30 31 28 27 27 25 25 24 22 22 21 22 22 19 19 21
14 15 14 14 14 15 16 17 19 21 22 22 20 18 18 21 21 20 20 20 19 19 20 21 22 23 23 25 27 29 29 29 27 26 26 26 27 29 29 30 30 31 31 30 32 33 30 30 30 29 29 28 25 23 22 21 22 21 21 22 19 19 21
15 16 16 14 16 17 16 16 18 21 23 24 24 21 17 19 22 22 22 21 20 19 20 21 22 22 23 23 24 27 28 27 26 25 25 24 27 29 30 30 30 30 31 31 32 33 32 31 30 28 29 26 23 22 21 22 24 23 22 21 19 19 21
17 20 19 17 16 17 17 17 17 18 20 22 25 25 21 19 21 23 22 22 21 19 18 20 21 22 23 22 23 25 25 25 25 24 23 24 27 28 27 29 30 31 31 30 30 30 31 31 31 30 29 27 24 23 22 23 25 25 24 23 20 19 21
19 21 21 19 18 17 17 18 18 17 17 18 21 23 23 21 20 22 22 21 21 19 19 20 21 23 23 22 24 25 25 26 26 24 23 25 27 26 25 27 30 31 30 29 30 31 31 31 31 31 31 29 26 25 25 25 26 25 24 24 21 20 21
20 21 21 21 20 18 18 19 20 19 18 18 18 19 21 22 20 20 21 21 21 19 20 21 21 22 22 22 24 25 25 27 27 26 26 26 27 27 26 27 30 31 29 29 32 33 32 32 32 31 31 30 29 29 28 27 26 24 24 25 24 21 21
19 20 21 21 20 20 20 20 20 20 20 19 18 18 19 20 20 20 20 21 22 21 20 22 22 22 21 22 25 27 26 26 27 28 28 29 28 27 26 27 27 27 27 28 31 31 30 31 32 31 31 30 30 31 30 29 27 24 24 26 25 23 21
20 21 21 21 21 21 20 19 19 20 20 20 19 18 18 18 18 18 18 19 22 21 20 22 23 22 21 23 26 27 26 25 25 26 28 28 28 28 27 26 25 25 26 28 28 28 29 30 31 32 32 30 30 31 30 31 31 28 27 26 23 23 22
21 21 21 21 21 21 20 20 20 19 19 19 18 18 18 17 17 17 17 18 19 18 17 20 21 20 21 21 23 25 25 24 24 25 26 27 28 27 27 26 26 27 28 28 27 27 28 29 30 30 31 31 32 31 30 32 31 29 30 28 24 24 24
21 22 22 22 21 21 21 21 20 20 21 20 19 17 16 16 16 16 16 17 18 16 16 18 19 20 21 21 24 27 26 24 24 24 25 25 26 27 27 27 27 29 29 28 28 28 28 29 30 30 30 32 33 31 30 30 28 27 30 28 25 26 26
21 21 22 22 22 22 21 22 21 21 23 25 23 20 17 16 15 15 15 15 15 15 16 18 18 19 21 22 24 27 25 23 23 24 25 25 24 25 26 27 27 28 29 28 29 29 29 30 30 29 30 32 32 31 30 28 26 25 27 28 27 27 27
21 21 22 22 22 22 22 22 22 20 21 25 27 27 24 20 17 17 16 16 15 14 14 17 18 19 21 23 24 24 23 23 23 24 25 25 23 22 22 23 26 28 29 29 29 29 30 31 30 30 32 33 33 33 32 29 28 27 26 27 28 28 27
22 22 22 23 22 22 22 21 20 20 19 21 25 29 30 28 24 21 20 18 17 16 14 15 17 17 19 21 23 23 23 24 24 24 23 22 21 22 21 22 24 26 28 30 31 31 31 32 32 33 34 34 33 33 32 31 30 28 28 27 27 27 26
22 22 23 23 23 23 23 22 21 20 19 20 22 24 27 32 32 29 26 23 21 19 17 16 17 18 19 20 22 23 23 24 26 25 23 21 21 23 23 23 24 25 27 30 32 33 32 32 33 34 35 34 31 29 29 30 30 29 29 28 27 26 25
22 23 23 23 24 24 25 24 23 22 20 20 21 19 21 27 32 33 32 29 26 25 22 19 18 20 22 21 21 22 23 24 25 25 24 23 23 22 22 23 23 24 28 31 31 32 32 32 32 33 34 32 28 27 29 30 29 29 29 29 28 28 27
22 22 23 23 24 24 24 25 25 24 22 22 21 20 20 21 24 29 34 34 31 30 27 25 21 18 20 22 20 20 22 24 24 24 23 23 23 23 21 22 22 24 28 29 27 27 30 31 31 29 29 28 26 27 29 29 29 29 28 28 28 28 27
22 22 22 23 23 23 23 24 24 24 23 23 22 21 21 19 19 24 30 33 34 33 31 29 26 21 19 19 19 19 20 22 24 24 23 23 23 22 22 22 23 24 25 24 22 22 24 27 28 26 25 25 24 24 28 29 28 27 26 26 26 26 26
21 21 22 23 23 23 23 23 23 23 23 23 23 22 22 21 20 21 24 27 31 34 34 33 30 27 22 19 17 17 17 19 21 22 22 22 22 21 19 21 26 28 25 20 19 21 21 23 27 27 24 24 23 23 26 25 24 23 23 23 24 24 24
21 21 22 22 23 23 23 23 24 23 23 23 23 23 22 22 23 23 22 23 26 31 34 34 33 30 26 22 18 15 16 17 19 19 18 19 20 19 14 15 22 28 25 20 19 21 20 24 28 25 21 24 24 21 21 21 20 20 21 22 22 22 22
21 21 22 22 22 23 23 24 24 24 23 23 23 24 23 23 24 25 24 25 26 28 31 33 33 32 29 27 22 17 15 15 15 16 14 12 16 19 17 17 19 23 24 22 21 21 21 25 28 24 21 22 22 19 19 19 19 20 20 20 20 18 17
22 22 22 22 22 23 24 24 24 24 24 23 24 24 24 23 24 24 24 26 28 27 28 29 31 32 31 30 27 22 18 15 11 13 11 9 13 18 20 21 21 21 24 24 22 21 22 25 27 24 21 21 21 21 20 20 20 20 19 17 15 15 14
21 23 24 23 23 23 24 25 25 24 24 24 24 24 24 23 24 24 24 25 27 27 26 26 27 29 30 30 30 27 22 18 12 10 10 10 13 16 18 20 21 22 24 24 22 23 24 24 24 23 22 22 22 22 21 20 20 18 16 16 17 16 16
19 21 23 24 24 24 25 26 27 26 24 24 24 24 24 24 24 24 25 25 25 26 26 24 24 26 27 27 27 27 25 22 17 11 9 9 10 12 16 20 20 20 20 21 23 24 24 24 25 25 24 23 22 20 20 20 20 19 20 21 20 21 21
Wind_Direction
286 287 288 288 290 290 287 282 278 272 269 266 261 261 264 264 263 260 256 253 249 251 255 253 250 247 243 242 241 240 238 236 235 233 236 237 234 236 235 232 229 226 230 228 211 202 193 193 200 206 205 199 201 204 198 196 196 191 189 192 195 194 190
281 284 287 285 285 286 284 281 278 274 269 266 264 261 263 268 269 264 259 255 250 249 253 253 252 249 245 243 241 241 241 238 237 237 237 234 229 234 240 237 232 226 225 229 220 213 205 198 199 203 200 195 203 206 199 197 196 196 197 191 190 195 194
281 282 284 283 284 283 281 280 275 273 272 270 269 264 262 266 267 265 261 258 255 253 253 252 252 250 245 242 240 240 243 241 239 238 237 234 231 234 240 238 235 228 221 219 218 217 212 207 205 204 198 194 201 204 197 195 195 197 199 194 188 193 199
279 278 279 280 282 283 281 281 275 272 272 271 271 268 265 265 264 264 263 261 257 254 253 252 252 248 243 243 241 240 245 244 241 239 238 237 234 235 239 237 234 229 222 220 219 215 211 208 206 203 199 197 202 204 200 196 195 197 198 196 191 193 203
274 277 280 278 276 275 274 276 275 272 273 273 273 270 267 266 266 267 265 263 261 257 254 253 251 248 244 245 246 244 244 245 242 240 238 237 234 235 235 234 235 231 225 225 224 218 215 212 205 200 200 199 200 203 203 198 195 197 199 197 194 193 201
276 280 284 283 278 273 269 270 270 269 271 272 271 271 270 268 267 268 267 266 265 261 256 252 249 247 244 244 246 245 243 243 242 239 238 238 235 234 233 235 240 237 229 229 228 221 217 214 207 202 204 204 201 198 201 201 197 198 201 200 197 195 198
279 278 278 280 281 280 277 275 272 271 273 272 270 271 272 271 268 268 268 266 263 259 254 250 247 246 244 243 245 244 241 241 240 237 237 238 235 233 234 238 240 236 232 233 231 223 215 213 207 204 204 204 201 195 197 200 198 198 200 200 198 196 197
284 276 270 272 279 284 284 281 279 279 281 280 280 278 273 271 271 269 267 265 262 259 256 251 248 248 246 242 244 244 240 238 236 234 234 234 233 231 232 237 238 234 232 230 227 222 216 212 209 208 203 198 196 193 194 198 198 201 201 199 199 197 197
301 287 272 268 271 279 285 286 286 287 286 284 284 283 276 270 269 266 264 264 261 257 258 257 252 250 248 243 242 243 239 234 230 230 231 229 229 229 230 235 238 237 235 228 224 223 219 215 211 210 206 201 196 190 192 196 198 204 202 198 197 196 197
319 310 291 275 266 268 280 287 287 284 283 282 282 283 280 273 269 267 263 262 260 257 258 259 255 249 246 242 240 240 238 233 228 228 229 225 225 227 228 232 235 237 239 234 228 225 220 216 212 211 211 209 200 190 193 197 198 201 199 196 196 194 196
322 316 305 291 275 267 271 278 283 282 280 283 283 283 281 278 276 274 267 262 261 259 258 257 255 252 246 241 237 237 236 234 231 230 227 222 222 225 227 231 233 233 236 235 233 228 218 214 215 214 214 214 206 198 199 201 201 202 196 195 197 194 195
325 314 303 293 284 281 278 273 276 281 282 284 286 286 285 282 280 276 271 265 258 257 257 256 256 256 251 244 239 236 234 233 231 228 225 222 224 226 227 231 231 230 234 233 232 229 218 214 216 213 212 215 212 208 208 203 201 200 196 197 197 194 195
333 322 306 289 282 287 287 274 267 272 278 282 286 287 284 281 278 276 273 268 262 260 262 260 258 257 253 248 244 239 233 232 230 226 225 226 227 228 229 232 230 228 233 233 229 229 222 216 216 213 210 211 212 212 210 204 200 199 198 198 196 196 198
342 330 315 298 285 279 277 270 263 263 266 270 277 281 279 274 273 274 274 270 266 266 267 264 258 255 254 251 248 241 233 231 229 226 227 229 229 232 235 238 235 229 233 235 229 228 226 220 218 218 215 211 212 216 215 210 209 208 206 200 194 201 204
346 338 327 315 301 286 278 273 267 265 265 265 267 272 277 277 275 275 274 270 266 265 264 262 256 253 255 255 249 240 232 229 227 224 226 226 230 236 239 237 231 227 232 235 230 228 228 222 218 220 219 212 211 217 216 211 208 207 207 201 194 201 203
347 344 339 329 319 307 296 285 275 271 269 267 267 267 273 278 277 277 275 272 270 266 261 259 258 256 258 257 248 236 230 229 226 224 226 229 235 240 238 233 228 229 233 232 228 227 225 222 220 221 221 216 212 213 212 209 207 204 201 200 201 201 198
351 351 348 337 327 322 315 302 289 281 275 271 269 267 271 278 277 276 278 279 278 274 267 263 261 257 256 255 246 234 229 230 230 230 231 238 245 242 236 234 232 232 232 227 224 225 224 221 219 222 223 218 215 214 212 212 212 206 196 195 204 205 198
357 355 350 344 337 331 324 315 307 297 289 284 278 271 272 279 280 277 279 283 281 276 270 263 256 252 250 247 240 233 231 232 233 235 236 243 248 242 236 236 234 231 229 224 220 221 223 219 216 221 224 219 218 219 217 215 212 208 203 196 197 203 199
359 356 353 350 343 338 333 326 320 312 300 295 290 282 275 277 281 282 280 281 281 276 271 265 255 247 244 242 239 238 237 236 235 237 240 245 247 241 232 231 232 230 228 226 223 221 222 221 219 222 225 221 221 222 220 219 214 209 209 200 194 199 199
360 358 356 352 346 343 343 339 333 326 315 302 294 288 279 273 277 283 284 281 279 274 271 269 258 244 238 239 241 241 239 239 238 239 245 250 250 244 237 234 235 236 231 228 227 224 224 226 227 228 226 222 223 223 220 222 219 211 207 203 199 198 200
0 358 357 355 351 351 351 349 345 338 330 318 303 290 282 275 274 281 286 283 280 276 274 272 263 249 243 244 246 245 242 241 241 242 247 252 252 252 249 244 243 239 232 231 232 231 230 230 231 231 227 222 223 226 223 221 220 213 207 209 205 197 197
1 359 358 358 357 356 354 354 351 346 339 331 318 302 288 281 279 281 286 285 281 281 280 277 269 259 256 255 251 246 244 245 245 245 248 249 250 253 252 247 241 237 236 239 241 240 237 235 235 235 232 226 225 228 225 218 216 213 209 212 209 196 194
3 1 360 360 359 359 358 355 356 356 351 341 329 315 297 286 282 281 284 283 280 281 284 281 274 265 260 255 252 250 248 248 248 248 248 247 247 250 249 246 244 243 244 244 243 242 241 241 240 238 235 229 225 227 223 214 213 213 209 212 211 201 198
4 4 3 2 0 0 360 359 1 5 6 359 347 333 316 301 292 286 283 282 280 279 279 277 271 264 257 250 250 255 256 251 249 250 249 246 244 243 243 244 247 247 246 244 241 241 241 241 241 239 236 229 224 228 227 218 215 214 209 209 209 203 201
5 5 4 3 2 2 1 1 2 6 11 12 7 358 344 328 316 304 293 288 290 286 279 275 267 257 254 252 250 253 253 251 253 255 251 245 241 240 242 244 245 242 242 243 242 240 239 240 240 236 232 227 223 225 227 221 217 215 211 210 211 208 207
6 5 4 4 3 3 2 2 3 3 6 11 14 14 8 357 346 332 316 305 305 301 288 280 270 255 250 253 253 250 248 248 252 256 255 250 243 242 243 244 241 237 237 240 240 238 239 240 238 232 228 225 222 222 225 224 221 219 215 216 219 219 218
8 7 6 5 4 4 3 2 2 2 1 3 9 15 16 13 7 359 347 335 323 312 295 281 275 263 251 248 250 251 249 247 248 251 255 252 246 246 246 244 243 241 239 239 239 240 242 241 239 236 231 226 222 223 227 228 226 224 221 222 226 228 227
8 8 7 7 7 6 4 2 2 2 1 359 0 6 13 16 15 11 4 358 347 333 315 294 279 271 262 252 248 251 253 250 248 248 250 249 248 250 250 247 249 249 246 243 240 239 242 242 239 237 234 230 226 225 227 227 227 227 226 225 227 228 227
8 8 7 7 7 6 6 5 3 3 2 0 359 359 3 9 14 16 12 7 2 355 343 326 303 284 275 266 256 255 257 254 248 244 244 245 246 249 249 248 250 249 245 242 237 235 236 235 233 234 232 227 223 223 226 228 228 229 228 226 226 226 227
9 8 7 7 7 6 5 5 4 4 2 1 1 0 359 359 5 11 14 13 9 4 358 350 336 311 289 277 266 260 260 256 249 244 243 241 242 246 249 249 249 244 237 233 231 231 229 223 222 225 222 216 216 222 226 228 228 229 230 229 228 229 230
11 10 9 9 7 5 4 4 5 4 4 2 360 0 0 358 356 359 5 10 12 10 7 2 355 340 315 294 277 266 264 258 249 246 246 240 236 240 245 244 245 245 239 231 228 233 231 223 220 219 215 211 213 220 226 227 225 224 224 224 226 228 230
12 12 11 11 10 8 5 5 5 5 5 5 3 1 1 1 1 0 358 1 8 11 11 9 4 356 342 322 298 279 272 264 251 247 248 241 230 229 236 236 235 236 232 225 230 239 241 235 228 225 222 216 213 218 226 225 219 216 218 218 220 222 224
14 13 13 12 12 11 9 7 7 7 7 6 6 5 4 3 4 5 4 4 8 13 14 13 9 4 357 347 329 304 292 282 262 248 247 240 226 223 232 234 228 223 215 213 228 239 242 240 233 225 217 210 207 212 220 216 209 212 215 214 215 218 220
16 15 15 13 12 12 12 10 8 8 8 8 7 7 7 7 6 6 9 13 15 16 16 16 13 10 6 1 353 338 325 310 275 247 243 243 228 225 234 237 228 218 212 213 225 232 237 241 235 221 205 200 203 211 215 209 205 208 210 210 210 209 208
20 19 17 16 15 13 13 12 11 9 8 8 8 8 8 9 8 8 11 17 19 17 15 16 16 15 13 10 5 1 356 342 295 248 233 230 223 222 230 235 232 225 220 220 225 230 233 237 233 222 209 204 208 215 215 205 199 198 195 191 183 174 168
20 21 20 19 18 16 14 15 14 12 10 9 9 9 9 9 9 10 10 13 16 17 18 20 20 20 19 18 15 13 12 6 339 284 254 241 231 228 235 241 241 235 229 223 223 227 230 227 220 212 208 210 213 216 212 199 189 181 165 151 142 137 135
17 19 19 18 18 16 16 16 16 14 13 12 11 11 10 11 12 12 11 10 11 14 19 24 27 26 26 25 23 21 21 21 16 350 303 274 255 240 240 246 250 251 243 229 220 221 221 214 206 202 203 205 201 193 186 176 167 158 149 146 145 144 146